Flag for Montenegro Weather past 2 weeks in Nikšić, Montenegro

Now
81 °F

Scattered clouds.


Feels Like: 83 °F
Forecast: 53 / 84 °F
Wind: 7 mph from South

Location: Niksic

Current Time: Aug 27, 2014 at 3:14:37 PM

Latest Report: Aug 27, 2014 at 2:00 PM


Visibility: 13 mi

Pressure: 29.85 "Hg

Humidity: 63%

Dew point: 67 °F

Location of NikšićLocation

Historic Weather in Nikšić — Graph

°F

Nikšić temperature yesterday

Maximum temperature yesterday: 79 °F (at 3:00 PM)
Minimum temperature yesterday: 56 °F (at 6:00 AM)
Average temperature yesterday: 70 °F

Past Weeks' High & Low Weather Summary

 TemperatureHumidityPressure
High87 °F (Aug 12, 3:00 PM)99% (Aug 21, 11:00 PM)30.06 "Hg (Aug 21, 11:00 PM)
Low54 °F (Aug 19, 6:00 AM)40% (Aug 14, 2:00 PM)29.79 "Hg (Aug 14, 3:00 PM)
Average71 °F72%29.94 "Hg
* Reported Aug 12 1:00 PM — Aug 27 1:00 PM, Nikšić, Weather by CustomWeather, © 2014

Note: Actual official high and low records may vary slightly from our data, if they occured in-between our weather recording intervals... More about our weather records

Advertising

Nikšić weather history for previous 24 hours

 ConditionsComfort  
Time TempWeatherWind HumidityBarometerVisibility
1:00 PM
Aug 27
79 °FPassing clouds.6 mph65%29.89 "Hg12 mi
12:00 PM78 °FPassing clouds.7 mph67%29.87 "Hg12 mi
11:00 AM77 °FSunny.5 mph71%29.89 "Hg12 mi
10:00 AM73 °FSunny.1 mph80%29.91 "Hg12 mi
9:00 AM68 °FPassing clouds.1 mph88%29.94 "Hg12 mi
8:00 AM61 °FPassing clouds.2 mph87%29.96 "Hg12 mi
7:00 AM58 °FPassing clouds.2 mph94%29.94 "Hg12 mi
6:00 AM58 °FClear.2 mph97%29.94 "Hg12 mi
5:00 AM58 °FClear.2 mph97%29.93 "Hg12 mi
2:00 AM61 °FClear.2 mph96%29.99 "Hg12 mi
11:00 PM
Aug 26
64 °FClear.2 mph83%29.98 "Hg12 mi
10:00 PM66 °FClear.2 mph79%29.96 "Hg12 mi
9:00 PM70 °FClear.2 mph77%29.93 "Hg12 mi
8:00 PM71 °FClear.3 mph73%29.93 "Hg12 mi
7:00 PM76 °FPassing clouds.3 mph63%29.91 "Hg12 mi
6:00 PM77 °FScattered clouds.3 mph63%29.90 "Hg12 mi
5:00 PM78 °FScattered clouds.5 mph60%29.90 "Hg12 mi
4:00 PM77 °FScattered clouds.5 mph57%29.91 "Hg12 mi
3:00 PM79 °FPartly sunny.6 mph50%29.93 "Hg12 mi
Weather by CustomWeather, © 2014

See weather overviewHow to use our weather pages